Location: Gajan
(43.0218°N, 1.1244°E)
Time: 10:06:19
(UTC+00:00)

N. Korean satellite - Pass Details

Date: 30 September 2021
Orbit: 450 x 495 km, 97.3° (Epoch: 15 October)

Event Time Altitude Azimuth Distance (km) Brightness Sun altitude
Rises 04:19:22 0° 29° (NNE) 2,547 10.9 -17.6°
Reaches altitude 10° 04:21:58 10° 50° (NE) 1,671 10.2 -17.1°
Maximum altitude 04:24:27 18° 93° (E) 1,275 9.7 -16.7°
Drops below altitude 10° 04:26:56 10° 137° (SE) 1,676 9.7 -16.2°
Sets 04:29:32 0° 157° (SSE) 2,558 10.4 -15.8°
